Regional Weather Roundup
Issued by NWS Goodland, KS

Home | Current Version | Previous Version | Graphics & Text | Print | Product List | Glossary Off
Versions: 1 2 3 4 5 6 7 8 9 10 11 12 13 14 15 16 17 18 19 20 21 22 23 24 25 26 27 28 29 30 31 32 33 34 35 36 37 38 39 40 41 42 43 44 45 46 47 48 49 50

000
ASUS43 KGLD 271959
RWRGLD

GOODLAND FORECAST AREA HOURLY WEATHER ROUNDUP
NATIONAL WEATHER SERVICE GOODLAND KS
100 PM MST THU NOV 27 2014

...OFFICIAL OBSERVATIONS...

CITY           SKY/WX    TMP DP  RH WIND       PRES   REMARKS
GOODLAND KS    MOSUNNY   64  26  23 S23G31    30.10F
HILL CITY KS   SUNNY     51  22  31 S15       30.18F
IMPERIAL NEB   SUNNY     57  30  35 S10       30.08F
MCCOOK NEB     SUNNY     53  25  33 SE12      30.11F
AKRON CO       CLOUDY    52  30  43 W13       30.11F
BURLINGTON CO  MOSUNNY   61  24  24 SW14      30.12F
LIMON CO       PTSUNNY   65  12  12 NW18      30.15F
$$

...UNOFFICIAL OBSERVATIONS...

CITY           SKY/WX    TMP DP  RH WIND       PRES   REMARKS
COLBY KS       SUNNY     57  34  41 S15       30.13F
GOVE KS          N/A     54  32  43 MISG        N/A
NORTON KS      SUNNY     48  16  27 S16       30.16F
SHARON SPRINGS   N/A     62  29  29 SW15G22     N/A
TRIBUNE KS     SUNNY     59  36  41 S13       30.17F
TRENTON NEB      N/A     52  32  46 E8          N/A
YUMA CO          N/A     60  29  31 W10         N/A
$$


USA.gov is the U.S. government's official web portal to all federal, state and local government web resources and services.